Orlando, FL

2:15 AM EDT on September 01, 2016 (GMT -0400)
Orlando International

Weather History for KMCO - May, 2013

Change the Weather History Date:

Tuesday, May 21, 2013

  Actual Average Record
Temperature  
Mean Temperature 75 °F 78 °F  
Max Temperature 81 °F 89 °F 98 °F (1908)
Min Temperature 69 °F 68 °F 54 °F (1893)
Degree Days  
Heating Degree Days 0 0  
Month to date heating degree days 0 0  
Since 1 July heating degree days 461 570  
Cooling Degree Days 10 13  
Month to date cooling degree days 206 237  
Year to date cooling degree days 742 658  
Growing Degree Days 25 (Base 50)    
Moisture  
Dew Point 70 °F    
Average Humidity 85    
Maximum Humidity 100    
Minimum Humidity 69    
Precipitation  
Precipitation 0.31 in 0.13 in 2.15 in (1912)
Month to date precipitation 4.10 1.84  
Year to date precipitation 9.92 13.02  
Sea Level Pressure  
Sea Level Pressure 30.01 in    
Wind  
Wind Speed 6 mph (East)    
Max Wind Speed 18 mph    
Max Gust Speed 24 mph    
Visibility 10 miles    
Events Rain , Thunderstorm    
T = Trace of Precipitation, MM = Missing Value Source: NWS Daily Summary

Daily Weather History Graph

Daily Weather History Graph

Search for Another Location

Airport or City:

Trip Planner

Search our weather history database for the weather conditions in past years. The results will help you decide how hot, cold, wet, or windy it might be!

Date:

Astronomy

May. 21, 2013 Rise Set
Actual Time 6:31 AM EDT 8:12 PM EDT
Civil Twilight 6:05 AM EDT 8:38 PM EDT
Nautical Twilight 5:34 AM EDT 9:09 PM EDT
Astronomical Twilight 5:01 AM EDT 9:42 PM EDT
Moon 4:40 PM EDT (5/21) 3:39 AM EDT (5/21)
Length of Visible Light 14h 32m
Length of Day
13h 40m
Waxing Gibbous, 84% of the Moon is Illuminated
May 21
Waxing Gibbous
May 25
Full
May 31
Last Quarter
Jun 8
New
Jun 16
First Quarter

Hourly Weather History & Observations

Time (EDT) Temp. Heat Index Dew Point Humidity Pressure Visibility Wind Dir Wind Speed Gust Speed Precip Events Conditions
12:53 AM 71.1 °F - 69.1 °F 93% 30.04 in 10.0 mi ESE 5.8 mph - N/A   Partly Cloudy
1:53 AM 71.1 °F - 69.1 °F 93% 30.02 in 10.0 mi SE 4.6 mph - N/A   Scattered Clouds
2:53 AM 70.0 °F - 69.1 °F 97% 30.01 in 10.0 mi Calm Calm - N/A   Scattered Clouds
3:53 AM 70.0 °F - 69.1 °F 97% 29.99 in 10.0 mi SSE 3.5 mph - N/A   Mostly Cloudy
4:36 AM 71.6 °F - 69.8 °F 94% 29.99 in 10.0 mi ESE 5.8 mph - N/A   Scattered Clouds
4:53 AM 71.1 °F - 70.0 °F 96% 29.99 in 10.0 mi ESE 6.9 mph - N/A   Scattered Clouds
5:53 AM 71.1 °F - 69.1 °F 93% 30.01 in 10.0 mi ESE 5.8 mph - N/A   Scattered Clouds
6:53 AM 70.0 °F - 68.0 °F 93% 30.02 in 10.0 mi SE 4.6 mph - N/A   Scattered Clouds
7:46 AM 71.6 °F - 69.8 °F 94% 30.03 in 10.0 mi Calm Calm - N/A   Scattered Clouds
7:53 AM 71.1 °F - 69.1 °F 93% 30.02 in 10.0 mi Calm Calm - N/A   Scattered Clouds
8:53 AM 73.9 °F - 70.0 °F 87% 30.05 in 10.0 mi ESE 3.5 mph - N/A   Scattered Clouds
9:53 AM 75.9 °F - 71.1 °F 85% 30.05 in 10.0 mi SSE 4.6 mph - N/A   Mostly Cloudy
10:53 AM 80.1 °F 82.9 °F 69.1 °F 69% 30.06 in 10.0 mi SW 4.6 mph - N/A   Mostly Cloudy
11:53 AM 73.9 °F - 68.0 °F 82% 30.05 in 7.0 mi North 6.9 mph - 0.19 in Rain Rain
12:53 PM 79.0 °F - 69.1 °F 72% 30.02 in 10.0 mi NNE 9.2 mph - 0.00 in   Mostly Cloudy
1:26 PM 78.8 °F - 69.8 °F 74% 30.02 in 10.0 mi ENE 18.4 mph 24.2 mph 0.00 in Rain , Thunderstorm Light Thunderstorms and Rain
1:53 PM 73.9 °F - 69.1 °F 85% 30.03 in 10.0 mi East 12.7 mph - 0.00 in Thunderstorm Thunderstorm
2:53 PM 73.9 °F - 69.1 °F 85% 30.03 in 10.0 mi East 9.2 mph - 0.00 in Thunderstorm Thunderstorm
3:22 PM 73.4 °F - 69.8 °F 88% 30.03 in 10.0 mi SE 4.6 mph - N/A   Overcast
3:53 PM 73.9 °F - 70.0 °F 87% 30.01 in 6.0 mi SE 3.5 mph - 0.02 in Rain Rain
4:39 PM 73.4 °F - 71.6 °F 94% 29.98 in 10.0 mi East 4.6 mph - 0.09 in Rain Light Rain
4:53 PM 75.0 °F - 72.0 °F 90% 29.98 in 10.0 mi ENE 6.9 mph - 0.10 in Rain Light Rain
5:18 PM 75.2 °F - 71.6 °F 89% 29.98 in 10.0 mi East 8.1 mph - 0.00 in   Mostly Cloudy
5:32 PM 75.2 °F - 71.6 °F 89% 29.98 in 10.0 mi ESE 6.9 mph - 0.00 in   Mostly Cloudy
5:53 PM 75.9 °F - 72.0 °F 87% 29.97 in 10.0 mi East 10.4 mph - 0.00 in   Mostly Cloudy
6:53 PM 75.9 °F - 71.1 °F 85% 29.97 in 10.0 mi ESE 8.1 mph - N/A   Mostly Cloudy
7:53 PM 75.0 °F - 70.0 °F 84% 29.99 in 10.0 mi East 4.6 mph - N/A   Mostly Cloudy
8:53 PM 73.9 °F - 70.0 °F 87% 29.99 in 10.0 mi East 6.9 mph - N/A   Mostly Cloudy
9:53 PM 73.0 °F - 70.0 °F 90% 29.99 in 10.0 mi East 5.8 mph - N/A   Mostly Cloudy
10:53 PM 72.0 °F - 70.0 °F 93% 30.00 in 10.0 mi ENE 5.8 mph - N/A   Scattered Clouds
11:53 PM 71.1 °F - 69.1 °F 93% 29.99 in 10.0 mi ENE 5.8 mph - N/A   Scattered Clouds